Valentine, NE

1:10 AM CST on December 09, 2016 (GMT -0600)
Miller Field

Weather History for KVTN - March, 2013

Change the Weather History Date:

Tuesday, March 5, 2013

  Actual Average Record
Temperature  
Mean Temperature 25 °F 33 °F  
Max Temperature 33 °F 46 °F 76 °F (1937)
Min Temperature 16 °F 20 °F -18 °F (1989)
Degree Days  
Heating Degree Days 40 32  
Month to date heating degree days 146 165  
Since 1 July heating degree days 5099 5401  
Cooling Degree Days 0 0  
Month to date cooling degree days 0 0  
Year to date cooling degree days 0 0  
Moisture  
Dew Point 10 °F    
Average Humidity 60    
Maximum Humidity 80    
Minimum Humidity 39    
Precipitation  
Precipitation T in 0.03 in 0.48 in (1931)
Month to date precipitation 0.01 0.13  
Year to date precipitation 1.24 0.87  
Snow  
Snow T in 0.20 in 6.60 in (1931)
Month to date snowfall 0.3 1.1  
Since 1 July snowfall 27.9 23.2  
Snow Depth 0.00 in    
Sea Level Pressure  
Sea Level Pressure 30.35 in    
Wind  
Wind Speed 16 mph (NNW)    
Max Wind Speed 37 mph    
Max Gust Speed 46 mph    
Visibility 10 miles    
Events Snow    
T = Trace of Precipitation, MM = Missing Value Source: NWS Daily Summary

Daily Weather History Graph

Daily Weather History Graph

Search for Another Location

Airport or City:

Trip Planner

Search our weather history database for the weather conditions in past years. The results will help you decide how hot, cold, wet, or windy it might be!

Date:

Astronomy

Mar. 05, 2013 Rise Set
Actual Time 7:10 AM CST 6:36 PM CST
Civil Twilight 6:42 AM CST 7:05 PM CST
Nautical Twilight 6:09 AM CST 7:38 PM CST
Astronomical Twilight 5:37 AM CST 8:11 PM CST
Moon 2:31 AM CST (3/5) 12:11 PM CST (3/5)
Length of Visible Light 12h 22m
Length of Day
11h 26m
Last Quarter, 40% of the Moon is Illuminated
Mar 5
Last Quarter
Mar 11
New
Mar 19
First Quarter
Mar 27
Full
Apr 2
Last Quarter

Hourly Weather History & Observations

Time (CST) Temp. Windchill Dew Point Humidity Pressure Visibility Wind Dir Wind Speed Gust Speed Precip Events Conditions
12:08 AM 19.4 °F 1.1 °F 8.6 °F 63% 30.09 in 10.0 mi NW 27.6 mph 46.0 mph N/A   Scattered Clouds
1:52 AM 19.9 °F 1.8 °F 10.9 °F 68% 30.20 in 10.0 mi NW 27.6 mph 40.3 mph 0.00 in   Overcast
2:25 AM 19.4 °F 1.4 °F 10.4 °F 68% 30.15 in 9.0 mi NW 26.5 mph 41.4 mph 0.00 in Snow Light Snow
2:52 AM 19.0 °F 1.3 °F 9.0 °F 65% 30.24 in 10.0 mi NW 25.3 mph 36.8 mph 0.00 in   Overcast
3:43 AM 17.6 °F -1.0 °F 8.6 °F 68% 30.17 in 10.0 mi NW 26.5 mph 38.0 mph N/A   Scattered Clouds
3:52 AM 18.0 °F 0.2 °F 9.0 °F 68% 30.27 in 10.0 mi NW 24.2 mph 39.1 mph N/A   Partly Cloudy
4:52 AM 18.0 °F -1.7 °F 9.0 °F 68% 30.29 in 10.0 mi NW 31.1 mph 40.3 mph N/A   Scattered Clouds
4:59 AM 17.6 °F -1.3 °F 8.6 °F 68% 30.19 in 10.0 mi NW 27.6 mph 41.4 mph N/A   Mostly Cloudy
5:52 AM 17.1 °F -1.0 °F 9.0 °F 71% 30.35 in 10.0 mi NW 24.2 mph 35.7 mph N/A   Mostly Cloudy
6:52 AM 16.0 °F 1.1 °F 8.1 °F 71% 30.39 in 10.0 mi NW 15.0 mph 31.1 mph N/A   Overcast
7:24 AM 15.8 °F -2.3 °F 8.6 °F 73% 30.27 in 10.0 mi NNW 23.0 mph 32.2 mph N/A   Overcast
7:52 AM 16.0 °F -0.9 °F 9.0 °F 74% 30.40 in 10.0 mi NNW 19.6 mph 28.8 mph N/A   Overcast
8:09 AM 15.8 °F -1.5 °F 8.6 °F 73% 30.29 in 9.0 mi NNW 20.7 mph 28.8 mph N/A   Overcast
8:52 AM 18.0 °F 1.7 °F 9.0 °F 68% 30.43 in 7.0 mi NNW 19.6 mph 27.6 mph 0.00 in Snow Light Snow
9:52 AM 18.0 °F 1.7 °F 9.0 °F 68% 30.44 in 6.0 mi NW 19.6 mph 26.5 mph 0.00 in Snow Light Snow
10:52 AM 21.9 °F 7.8 °F 10.0 °F 60% 30.44 in 10.0 mi NNW 17.3 mph 24.2 mph 0.00 in   Mostly Cloudy
11:01 AM 23.0 °F 9.6 °F 10.4 °F 59% 30.32 in 10.0 mi NW 16.1 mph 24.2 mph N/A   Scattered Clouds
11:52 AM 26.1 °F 12.3 °F 10.9 °F 53% 30.43 in 10.0 mi NNW 19.6 mph 26.5 mph N/A   Clear
12:52 PM 28.4 °F 15.8 °F 10.4 °F 47% 30.32 in 10.0 mi NNW 18.4 mph 27.6 mph N/A   Clear
1:52 PM 30.0 °F 18.3 °F 10.9 °F 45% 30.41 in 10.0 mi NW 17.3 mph 26.5 mph N/A   Clear
2:52 PM 32.0 °F 23.0 °F 12.0 °F 44% 30.38 in 10.0 mi North 11.5 mph 23.0 mph N/A   Clear
3:52 PM 32.0 °F 20.8 °F 10.9 °F 42% 30.41 in 10.0 mi NNW 17.3 mph 21.9 mph N/A   Clear
4:52 PM 30.9 °F 21.7 °F 10.9 °F 43% 30.40 in 10.0 mi North 11.5 mph - N/A   Clear
5:52 PM 28.9 °F 21.1 °F 10.9 °F 47% 30.42 in 10.0 mi North 8.1 mph - N/A   Clear
6:52 PM 25.0 °F 20.7 °F 12.0 °F 58% 30.43 in 10.0 mi North 3.5 mph - N/A   Clear
7:52 PM 23.0 °F 15.8 °F 12.9 °F 65% 30.44 in 10.0 mi ENE 5.8 mph - N/A   Clear
8:52 PM 19.9 °F 14.9 °F 12.9 °F 74% 30.44 in 10.0 mi East 3.5 mph - N/A   Clear
9:52 PM 18.0 °F 9.8 °F 12.0 °F 78% 30.46 in 10.0 mi ENE 5.8 mph - N/A   Clear
10:52 PM 17.1 °F 11.7 °F 12.0 °F 81% 30.45 in 10.0 mi East 3.5 mph - N/A   Clear
11:52 PM 16.0 °F 8.8 °F 12.0 °F 84% 30.43 in 10.0 mi East 4.6 mph - N/A   Clear